TimeCST,TemperatureF,Dew PointF,Humidity,Sea Level PressureIn,VisibilityMPH,Wind Direction,Wind SpeedMPH,Gust SpeedMPH,PrecipitationIn,Events,Conditions,WindDirDegrees,DateUTC
12:15 AM,18.3,13.1,80,30.50,10.0,SSW,10.4,-,N/A,,Clear,200,2013-12-12 06:15:00
12:35 AM,18.9,13.3,79,30.49,10.0,South,9.2,-,N/A,,Clear,170,2013-12-12 06:35:00
12:55 AM,19.0,13.1,78,30.48,10.0,South,9.2,-,N/A,,Clear,190,2013-12-12 06:55:00
1:15 AM,19.0,13.8,80,30.47,10.0,South,9.2,-,N/A,,Clear,190,2013-12-12 07:15:00
1:35 AM,21.9,14.9,74,30.47,10.0,South,12.7,-,N/A,,Clear,190,2013-12-12 07:35:00
1:55 AM,22.6,14.9,72,30.46,10.0,SSW,13.8,-,N/A,,Clear,200,2013-12-12 07:55:00
2:15 AM,23.0,15.4,73,30.46,10.0,SSW,13.8,-,N/A,,Clear,200,2013-12-12 08:15:00
2:35 AM,22.1,15.1,74,30.45,10.0,SSW,13.8,-,N/A,,Clear,200,2013-12-12 08:35:00
2:55 AM,22.3,15.4,75,30.45,10.0,SSW,13.8,-,N/A,,Clear,200,2013-12-12 08:55:00
3:15 AM,22.6,15.6,74,30.44,10.0,SSW,13.8,-,N/A,,Clear,200,2013-12-12 09:15:00
3:35 AM,21.4,14.9,76,30.43,10.0,SSW,12.7,-,N/A,,Clear,200,2013-12-12 09:35:00
3:55 AM,22.1,15.6,76,30.43,10.0,SSW,13.8,-,N/A,,Clear,200,2013-12-12 09:55:00
4:15 AM,21.4,15.4,78,30.43,10.0,SSW,11.5,-,N/A,,Clear,200,2013-12-12 10:15:00
4:35 AM,21.6,15.6,78,30.41,10.0,SSW,13.8,-,N/A,,Clear,200,2013-12-12 10:35:00
4:55 AM,21.6,15.8,78,30.41,10.0,South,11.5,-,N/A,,Clear,190,2013-12-12 10:55:00
5:15 AM,21.4,15.8,79,30.40,10.0,South,12.7,-,N/A,,Clear,190,2013-12-12 11:15:00
5:35 AM,21.2,15.8,80,30.39,10.0,South,12.7,-,N/A,,Clear,190,2013-12-12 11:35:00
5:55 AM,21.2,15.8,80,30.39,10.0,South,12.7,-,N/A,,Clear,190,2013-12-12 11:55:00
6:15 AM,23.0,16.7,77,30.39,10.0,SSW,17.3,-,N/A,,Clear,210,2013-12-12 12:15:00
6:35 AM,22.6,16.2,76,30.39,10.0,SSW,13.8,-,N/A,,Clear,200,2013-12-12 12:35:00
6:55 AM,22.1,16.0,77,30.38,10.0,SSW,17.3,-,N/A,,Clear,210,2013-12-12 12:55:00
7:15 AM,22.8,16.2,76,30.38,10.0,SSW,16.1,-,N/A,,Clear,210,2013-12-12 13:15:00
7:35 AM,22.1,15.8,77,30.39,10.0,SSW,13.8,-,N/A,,Clear,200,2013-12-12 13:35:00
7:55 AM,22.1,15.8,77,30.39,10.0,SSW,13.8,-,N/A,,Clear,200,2013-12-12 13:55:00
8:15 AM,22.8,16.5,77,30.39,10.0,SSW,15.0,-,N/A,,Clear,200,2013-12-12 14:15:00
8:35 AM,23.9,16.9,75,30.39,10.0,SSW,12.7,-,N/A,,Clear,200,2013-12-12 14:35:00
8:55 AM,25.7,17.6,71,30.39,10.0,SSW,10.4,18.4,N/A,,Clear,200,2013-12-12 14:55:00
9:15 AM,27.5,18.3,68,30.39,10.0,South,12.7,-,N/A,,Clear,190,2013-12-12 15:15:00
9:35 AM,28.9,18.5,65,30.39,10.0,SSW,13.8,19.6,N/A,,Clear,200,2013-12-12 15:35:00
9:55 AM,30.6,19.0,62,30.39,10.0,SSW,10.4,19.6,N/A,,Clear,210,2013-12-12 15:55:00
10:15 AM,32.5,19.6,59,30.40,10.0,SSW,11.5,-,N/A,,Clear,210,2013-12-12 16:15:00
10:35 AM,34.5,20.1,56,30.40,10.0,SSW,13.8,-,N/A,,Clear,200,2013-12-12 16:35:00
10:55 AM,36.5,20.1,52,30.39,10.0,SSW,11.5,-,N/A,,Clear,210,2013-12-12 16:55:00
11:15 AM,37.6,20.5,50,30.39,10.0,SSW,15.0,-,N/A,,Clear,210,2013-12-12 17:15:00
11:35 AM,39.4,20.8,47,30.37,10.0,SSW,13.8,-,N/A,,Clear,210,2013-12-12 17:35:00
11:55 AM,41.5,20.8,44,30.35,10.0,SSW,16.1,20.7,N/A,,Clear,200,2013-12-12 17:55:00
12:15 PM,42.1,20.1,42,30.34,10.0,SSW,15.0,19.6,N/A,,Clear,210,2013-12-12 18:15:00
12:35 PM,41.7,20.3,42,30.32,10.0,SSW,15.0,-,N/A,,Clear,200,2013-12-12 18:35:00
12:55 PM,41.9,20.3,42,30.30,10.0,SSW,12.7,-,N/A,,Clear,200,2013-12-12 18:55:00
1:15 PM,40.5,20.3,45,30.28,10.0,SSW,18.4,-,N/A,,Clear,200,2013-12-12 19:15:00
1:35 PM,42.4,20.8,42,30.27,10.0,SSW,17.3,26.5,N/A,,Clear,200,2013-12-12 19:35:00
1:55 PM,42.8,20.3,41,30.26,10.0,SSW,18.4,23.0,N/A,,Clear,200,2013-12-12 19:55:00
2:15 PM,42.1,20.5,42,30.25,10.0,SSW,17.3,-,N/A,,Clear,200,2013-12-12 20:15:00
2:35 PM,44.4,20.1,38,30.24,10.0,SSW,18.4,-,N/A,,Clear,210,2013-12-12 20:35:00
2:55 PM,50.2,19.9,30,30.22,10.0,SSW,17.3,-,N/A,,Clear,210,2013-12-12 20:55:00
3:15 PM,50.2,18.9,29,30.21,10.0,SSW,18.4,24.2,N/A,,Clear,210,2013-12-12 21:15:00
3:35 PM,44.6,20.3,38,30.22,10.0,SSW,17.3,24.2,N/A,,Clear,200,2013-12-12 21:35:00
3:55 PM,44.1,20.8,40,30.21,10.0,SSW,18.4,24.2,N/A,,Clear,200,2013-12-12 21:55:00
4:15 PM,43.2,21.0,41,30.21,10.0,SSW,20.7,25.3,N/A,,Clear,200,2013-12-12 22:15:00
4:35 PM,41.9,21.2,44,30.21,10.0,South,16.1,-,N/A,,Clear,190,2013-12-12 22:35:00
4:55 PM,39.6,21.2,48,30.19,10.0,South,13.8,23.0,N/A,,Clear,190,2013-12-12 22:55:00
5:15 PM,37.2,21.2,52,30.18,10.0,South,17.3,-,N/A,,Scattered Clouds,190,2013-12-12 23:15:00
5:35 PM,37.4,21.6,53,30.16,10.0,South,18.4,-,N/A,,Mostly Cloudy,180,2013-12-12 23:35:00
5:55 PM,36.5,21.6,55,30.16,10.0,South,15.0,24.2,N/A,,Mostly Cloudy,190,2013-12-12 23:55:00
6:15 PM,36.0,21.6,56,30.16,10.0,South,17.3,-,N/A,,Scattered Clouds,190,2013-12-13 00:15:00
6:35 PM,35.6,21.7,57,30.14,10.0,South,18.4,24.2,N/A,,Clear,180,2013-12-13 00:35:00
6:55 PM,36.1,21.7,56,30.14,10.0,South,12.7,-,N/A,,Scattered Clouds,170,2013-12-13 00:55:00
7:15 PM,37.6,21.9,53,30.13,10.0,South,13.8,-,N/A,,Overcast,170,2013-12-13 01:15:00
7:35 PM,38.3,22.1,52,30.14,10.0,South,15.0,23.0,N/A,,Overcast,190,2013-12-13 01:35:00
7:55 PM,38.8,22.1,51,30.12,10.0,South,20.7,25.3,N/A,,Mostly Cloudy,190,2013-12-13 01:55:00
8:15 PM,38.8,21.9,51,30.11,10.0,South,19.6,-,N/A,,Overcast,180,2013-12-13 02:15:00
8:35 PM,38.7,21.9,51,30.11,10.0,South,24.2,33.4,N/A,,Mostly Cloudy,190,2013-12-13 02:35:00
8:55 PM,37.8,22.1,53,30.11,10.0,South,20.7,27.6,N/A,,Scattered Clouds,190,2013-12-13 02:55:00
9:15 PM,37.4,22.6,55,30.12,10.0,SSW,16.1,-,N/A,,Scattered Clouds,200,2013-12-13 03:15:00
9:35 PM,37.8,23.0,55,30.10,10.0,SSW,8.1,-,N/A,,Overcast,200,2013-12-13 03:35:00
9:55 PM,37.8,23.4,56,30.09,10.0,SSW,12.7,17.3,N/A,,Overcast,200,2013-12-13 03:55:00
10:15 PM,37.6,23.9,58,30.09,10.0,SSW,12.7,-,N/A,,Overcast,210,2013-12-13 04:15:00
10:35 PM,38.1,24.6,58,30.06,10.0,South,16.1,21.9,N/A,,Overcast,190,2013-12-13 04:35:00
10:55 PM,38.3,25.3,60,30.05,10.0,SSW,16.1,21.9,N/A,,Mostly Cloudy,200,2013-12-13 04:55:00
11:15 PM,38.3,25.7,61,30.05,10.0,South,19.6,25.3,N/A,,Scattered Clouds,190,2013-12-13 05:15:00
11:35 PM,39.2,26.6,61,30.04,10.0,SSW,19.6,26.5,N/A,,Mostly Cloudy,200,2013-12-13 05:35:00
11:55 PM,39.4,27.5,62,30.04,10.0,SSW,16.1,-,N/A,,Overcast,200,2013-12-13 05:55:00